CZ-6A DEB

Satellite information

Favourite Embed

Satellite Type and Status

DEBRISIN ORBIT

Key statistics

Satellite CZ-6A DEB at a glance.

Uptime

1129

Days in orbit

Revolutions

≈ 14.2

Per day

Orbit

SSO

Sun Synchronous Orbit

Inclination

98.7

Latest

Satellite identification and parameters

Extended collection of information and parameters for CZ-6A DEB.

Object identification

Identified? True

Debris? True

Object name: CZ-6A DEB

International designator: 2022-151DF

Object number (NORAD): 54360

Object ID (CCSDS): 54360

Country: PEOPLES REPUBLIC OF CHINA (PRC)

Current information (Y/N): Y

RCS size: SMALL

Orbital parameters

Period: 101.317 minutes

Inclination: 98.6903 deg

SMA: 7199.159 km

Apoapsis: 884.75 km

Periapsis: 757.298 km

RAAN: 341.2764 deg

Eccentricy: 0.00885184

Argument of periapsis: 352.2958 deg

Mean anomaly: 7.6853 deg

Mean motion: 14.2128147 rev/day

Mean motion (dot): 0.0000291 rev/day2

B* drag term: 0.0013022274 1/REarth

Two-line elements (TLE)

Creation date: Dec. 13, 2025, 4:32 a.m.

Reference frame: TEME

Reference center: EARTH

Epoch: Dec. 12, 2025, 10:36 p.m. UTC

TLE line 0: 0 CZ-6A DEB

TLE line 1: 1 54360U 22151DF 25346.94195646 .00002910 00000-0 13022-2 0 9995

TLE line 2: 2 54360 98.6903 341.2764 0088518 352.2958 7.6853 14.21281470159202

Live tracking on map

Real-time ground track for satellite CZ-6A DEB.

In-orbit conjunctions

A list of the most updated potential collisions computed for object CZ-6A DEB.

Target Orbit TCA Probability of collision Miss distance Type
COSMOS 1980 DEB LEO 2025-10-23 12:15:25 0.0001914701 438.0 (m) DEBRIS
IRIDIUM 16 LEO 2025-09-17 19:32:03 0.001507151 245.0 (m) PAYLOAD
COSMOS 1680 LEO 2025-06-16 06:12:26 0.0002179884 711.0 (m) PAYLOAD

Associated space launch

Chinese satellite reported for atmospheric/ocean/environmental/spatial parameter research purposes, details TBD.

CZ-6A DEB was lifted into orbit during the mission ‘Long March 6A | Yunhai 3’, on board a Long March 6A space rocket.

The launch took place on Nov. 11, 2022, 10:52 p.m. from Launch Complex 9A.

For more information about the launch, click the button.

Launch to space Long March 6A | Yunhai 3
Long March 6A | Yunhai 3

Agency: N/A

Status: Launch Successful

Launch date: Nov. 11, 2022, 10:52 p.m. UTC

Rocket: Long March 6A

Launch pad: Launch Complex 9A

Location: Taiyuan Satellite Launch Center, People's Republic of China

...

Latest news about this satellite

There are no fresh news available about this satellite. Check back as we update our databases every day.


Newsletter sign-up

Weekly statistics, charts and insights to help you stay on top of the space industry.